Location: Campestrin
(46.4667°N, 11.7167°E)
Time: 10:42:35
(UTC+00:00)

Timation 2 Rocket - Pass Details

Date: 18 April 2021
Orbit: 907 x 1074 km, 70.0° (Epoch: 06 May)

Event Time Altitude Azimuth Distance (km) Brightness Sun altitude
Exits shadow 20:10:13 23° 171° (S) 2,005 5.2 -19.5°
Maximum altitude 20:14:01 48° 110° (ESE) 1,293 4.2 -20.0°
Drops below altitude 10° 20:20:04 10° 38° (NE) 2,727 6.4 -20.7°
Sets 20:22:39 0° 33° (NNE) 3,654 7.2 -21.0°
